Portada
METAR-TAF:

METAR-TAF

Aeroports :

Aeroport de Moulay Ali Cherif

Rachidia, Marroc

latitud: 31-56N, longitud: 004-24W, altitud: 1034 m

Observació

L'informe es va fer fa 19 minuts, a les 17:00 UTC
Vent 3 kt del Sud
Temperatura 20°C
Humitat 18%
Pressió 1027 hPa
Visibilitat 10 km o més
sense núvols per sota de 1500 mi sense presència de cumulonimbus.

METAR: GMFK 101700Z 18003KT CAVOK 20/M05 Q1027 NOSIG

Hora: 17:19 (17:19 UTC)


TAF: manca

Observacions i pronòstics meteorològics de més de 4000 aeroports (METAR i TAF).

Les estacions disponibles són els punts grocs i vermells al mapa.

Posi el ratolí al punt desitjat per veure el nom de l'estació.

Feu clic per veure les observacions i els pronòstics meteorològics.

Per canviar el mapa: feu clic els botons verds amb una creu de color negre per apropar; al botó verd amb un guió per allunyar la imatge; o en les fletxes verdes per a mapes adjacents.


METAR-TAF: